Location: Broekland
(52.3610°N, 6.2005°E)
Time: 15:02:03
(UTC+00:00)

ACS3 Solar Sail - Pass Details

Date: 26 January 2026
Orbit: 900 x 968 km, 97.2° (Epoch: 10 February)

Event Time Altitude Azimuth Distance (km) Brightness Sun altitude
Rises 03:37:47 0° 7° (N) 3,631 5.0 -34.4°
Reaches altitude 10° 03:40:37 10° 356° (N) 2,671 4.2 -34.0°
Enters shadow 03:41:00 12° 354° (N) 2,557 4.0 -33.9°
